User: anonymous
Location: Caltech
(34.1382°N, 118.1253°W)
Time: 01:08:44
(UTC-07:00)
Language:

Iridium 70 - Orbit

View from above orbital plane
View from above orbital plane
View from above satellite
View from above satellite

Ground track
Ground track

The orbit data is extracted from the following two-line orbital elements,

1 25342U 98032A   14292.49348216  .00000383  00000-0  12974-3 0    73
2 25342 086.3940 270.3316 0002100 100.0602 013.8049 14.34218056859823
Epoch (UTC): 19 October 2014 11:50:36
Eccentricity: 0.0002100
inclination: 86.3940°
perigee height: 776 km
apogee height: 779 km
right ascension of ascending node: 270.3316°
argument of perigee: 100.0602°
revolutions per day: 14.34218056
mean anomaly at epoch: 13.8049°
orbit number at epoch: 85982

The dashed part of the orbit path shows where the satellite is in the earth's shadow,  

DLR